Weather History for Jacksonville, FL

Change the Weather History Date:

Monday, March 11, 2013

  Actual Average Record
Temperature  
Mean Temperature 63 °F 61 °F  
Max Temperature 77 °F 73 °F 89 °F (1967)
Min Temperature 49 °F 49 °F 31 °F (1934)
Degree Days  
Heating Degree Days 2 6  
Month to date heating degree days 147 71  
Since 1 July heating degree days 1040 1204  
Cooling Degree Days 0 2  
Month to date cooling degree days 0 14  
Year to date cooling degree days 76 43  
Growing Degree Days 12 (Base 50)    
Moisture  
Dew Point 54 °F    
Average Humidity 68    
Maximum Humidity 93    
Minimum Humidity 43    
Precipitation  
Precipitation 0.01 in 0.13 in 2.66 in (1944)
Month to date precipitation 0.07 1.51  
Year to date precipitation 5.79 8.00  
Snow  
Snow 0.00 in 0.00 in 0.00 in (2002)
Month to date snowfall 0.0 0.0  
Since 1 July snowfall 0.0 T  
Snow Depth 0.00 in    
Sea Level Pressure  
Sea Level Pressure 30.02 in    
Wind  
Wind Speed 8 mph (SSE)    
Max Wind Speed 17 mph    
Max Gust Speed 24 mph    
Visibility 10 miles    
Events      
T = Trace of Precipitation, MM = Missing Value Source: NWS Daily Summary

Daily Weather History Graph

Daily Weather History Graph

Search for Another Location

Airport:

Trip Planner

Search our weather history database for the weather conditions in past years. The results will help you decide how hot, cold, wet, or windy it might be!

Date:

Astronomy

Mar. 11, 2013 Rise Set
Actual Time 7:41 AM EDT 7:32 PM EDT
Civil Twilight 7:17 AM EDT 7:56 PM EDT
Nautical Twilight 6:49 AM EDT 8:24 PM EDT
Astronomical Twilight 6:21 AM EDT 8:52 PM EDT
Moon 7:16 AM EDT (3/11) 7:39 PM EDT (3/11)
Length of Visible Light 12h 39m
Length of Day
11h 51m
Waning Crescent, 0% of the Moon is Illuminated
Mar 11
Waning Crescent
Mar 11
New
Mar 19
First Quarter
Mar 27
Full
Apr 3
Last Quarter

Hourly Weather History & Observations

Time (EDT) Temp. Dew Point Humidity Pressure Visibility Wind Dir Wind Speed Gust Speed Precip Events Conditions
12:56 AM 60.1 °F 54.0 °F 80% 30.14 in 10.0 mi ESE 6.9 mph - N/A   Clear
1:56 AM 61.0 °F 54.0 °F 78% 30.13 in 10.0 mi ESE 5.8 mph - N/A   Clear
2:56 AM 57.0 °F 53.1 °F 87% 30.12 in 10.0 mi ESE 4.6 mph - N/A   Clear
3:56 AM 55.0 °F 52.0 °F 89% 30.09 in 10.0 mi Calm Calm - N/A   Clear
4:56 AM 57.9 °F 54.0 °F 87% 30.06 in 10.0 mi SE 5.8 mph - N/A   Clear
5:56 AM 53.1 °F 52.0 °F 96% 30.06 in 10.0 mi Calm Calm - N/A   Clear
6:56 AM 53.1 °F 51.1 °F 93% 30.07 in 7.0 mi Calm Calm - N/A   Clear
7:56 AM 51.1 °F 48.9 °F 92% 30.06 in 10.0 mi Calm Calm - N/A   Scattered Clouds
8:56 AM 57.9 °F 55.9 °F 93% 30.08 in 10.0 mi Calm Calm - N/A   Scattered Clouds
9:56 AM 66.9 °F 55.0 °F 66% 30.07 in 10.0 mi SSE 11.5 mph 20.7 mph N/A   Mostly Cloudy
10:56 AM 71.1 °F 52.0 °F 51% 30.07 in 10.0 mi SSE 15.0 mph - N/A   Overcast
11:56 AM 73.9 °F 53.1 °F 48% 30.08 in 10.0 mi South 12.7 mph - N/A   Mostly Cloudy
12:56 PM 73.9 °F 54.0 °F 50% 30.06 in 10.0 mi South 10.4 mph 18.4 mph N/A   Overcast
1:56 PM 75.9 °F 53.1 °F 45% 30.02 in 10.0 mi South 17.3 mph 23.0 mph N/A   Overcast
2:56 PM 75.0 °F 53.1 °F 46% 29.99 in 10.0 mi South 11.5 mph 20.7 mph N/A   Overcast
3:56 PM 75.0 °F 54.0 °F 48% 29.96 in 10.0 mi South 9.2 mph - N/A   Overcast
4:56 PM 77.0 °F 54.0 °F 45% 29.94 in 10.0 mi SSE 10.4 mph - N/A   Mostly Cloudy
5:56 PM 73.0 °F 57.0 °F 57% 29.93 in 10.0 mi SE 13.8 mph - N/A   Mostly Cloudy
6:56 PM 71.1 °F 55.9 °F 59% 29.92 in 10.0 mi SE 12.7 mph - N/A   Overcast
7:56 PM 68.0 °F 57.0 °F 68% 29.91 in 10.0 mi SE 11.5 mph - N/A   Overcast
8:56 PM 66.9 °F 55.0 °F 66% 29.92 in 10.0 mi SE 9.2 mph - N/A   Overcast
9:56 PM 66.9 °F 55.0 °F 66% 29.94 in 10.0 mi SSE 9.2 mph - N/A   Overcast
10:56 PM 66.9 °F 55.9 °F 68% 29.96 in 10.0 mi South 10.4 mph - N/A   Overcast
11:56 PM 64.0 °F 59.0 °F 84% 29.91 in 10.0 mi SSE 8.1 mph - 0.01 in   Overcast